Starlink 30428

operational
NORAD ID: 57906 Int'l Des: 2023-146 Owner: SPXS Country: US Constellation: starlink
LEOCIRCULAR

关于 Starlink 30428

正在加载描述...

实时位置

正在加载3D地球...

即将过境

高度历史

Altitude vs Time

uPlot chart will show altitude changes over time

两行轨道根数

1 57906U 23146R 25350.49200092 .00001210 00000-0 10466-3 0 9998
2 57906 43.0040 45.2039 0001321 274.3299 85.7393 15.02537836123490
Epoch: Dec 16, 2025 • Age: 17 hours

当前状态

高度 560.1 km
速度 7.58 km/s
星下点 -7.39°S, 74.16°E
发射日期 Sep 20, 2023
运行时间 2.2 years
类型 internet

技术详情

分类 Payload
质量 730.00 kg
干质量 700.00 kg
总质量 730.00 kg
长度 0.30 m
直径 4.10 m
跨度 29.00 m
形状 Box + pan
制造商 SPXS
平台类型 Starlink V2M
阶段状态 In Orbit
所有者/国家 SPXS/US

大型星座

Loading constellations...